Aérodrome :
LOGIN :

S'inscrire | Disclaimer

   EN    FR    IT 

 










Légende :    VFR   VFR Marginal   IFR   IFR Intensif   IFR Très Intensif
Visi : 
Plafond : 
>= 8 km
>= 3000ft
5 à 8 km
1000 à 3000 ft
1500m à 5 km
500 à 1000 ft
800 à 1500m
200 à 500 ft
< 800m
< 200 ft
Symboles :   Orages  Brouillard  Fortes neiges  Fortes précipitations  Vent > 20 kt
SIGMETs :   Divers  Orages  Givrage  Turbulence  Onde Orograph.  Cendres Volcan.







- Altitude de l'aérodrome : 7 ft
- Code IATA : POW


LJPZ - Portoroz

DERNIER METAR :
  • 210300Z AUTO VRB01KT 9999 NCD 07/M05 Q1031

METARs EXPIRÉS :
  • 210230Z AUTO 00000KT 9999 NCD 07/M05 Q1031
  • 210200Z AUTO 11001KT 9999 NCD 08/M05 Q1031
  • 210130Z AUTO 09004KT 350V150 9999 NCD 08/M05 Q1031
  • 210100Z AUTO 09006KT 040V130 9999 NCD 08/M05 Q1031
  • 210030Z AUTO 08008KT 030V120 9999 NCD 09/M05 Q1031

TAF TAF LJPZ
Valide du 21 à 03h jusqu'au 21 à 12h UTC


210200Z 2103/2112 06007KT CAVOK
TEMPO 2109/2112 06012KT
Pas de NOTAMs connus pour ce terrain.



MET'MAP, la Météo Aéronautique d'un coup d'oeil ! - Copyright ORBIFLY Décembre 2007 - Disclaimer

ORBIFLY MET'MAP TEAM :

Programmation & Développement : Alexandra Zaïnal
Conception & Développement : Baudouin d'Aumeries
Co-Programmation & Développement : Marc-Olivier Méhu
Soutien technique & logistique : Manuel Goepfert

Contact : metmap@orbifly.com




SOURCES & CREDITS :

   NOAA